Location: Oro Verde
(31.8170°S, 60.5170°W)
Time: 05:33:34
(UTC-03:00)

ISS - Visible Passes

Search period start: 06 October 2022 00:00
Search period end: 16 October 2022 00:00
Orbit: 415 x 419 km, 51.6° (Epoch: 06 October)

Date Brightness Start Highest point End Pass type
(mag) Time Alt. Az. Time Alt. Az. Time Alt. Az.
09 Oct -0.9 05:26:05 10° S 05:28:30 18° SE 05:30:54 10° E visible
10 Oct -0.5 04:38:49 10° S 04:40:03 11° SSE 04:41:16 10° SE visible
11 Oct -2.8 05:25:34 10° SW 05:28:54 50° SE 05:32:11 10° ENE visible
12 Oct -1.7 04:38:26 16° SSW 04:40:31 27° SE 04:43:28 10° E visible
12 Oct -0.9 21:16:13 10° WNW 21:16:39 13° WNW 21:16:39 13° WNW visible
13 Oct -0.5 03:53:23 14° ESE 03:53:23 14° ESE 03:54:20 10° ESE visible
13 Oct -3.3 05:26:24 15° WSW 05:28:56 41° NW 05:32:06 10° NNE visible
13 Oct -3.9 20:27:52 10° NW 20:31:13 68° NE 20:32:24 36° ESE visible
14 Oct -2.7 04:41:48 38° NE 04:41:48 38° NE 04:43:59 10° NE visible
14 Oct -3.0 19:39:52 10° NNW 19:42:55 32° NE 19:45:59 10° ESE visible
14 Oct -1.1 21:17:08 10° W 21:19:42 20° SW 21:20:50 17° S visible
15 Oct -2.0 20:28:05 10° WNW 20:31:11 33° SW 20:34:18 10° SSE visible
